User: anonymous   Login
Location: Waning Moon II Observatory
(30.3730°N, 89.7620°W)
Time: 18:52:31
(UTC-05:00)
Language:

Cosmos 1825 Rocket - Orbit

View from above orbital plane
View from above orbital plane
View from above satellite
View from above satellite

Ground track
Ground track

The orbit data is extracted from the following two-line orbital elements,

1 17567U 87024B   16119.74265835  .00000142  00000-0  14303-4 0  9997
2 17567  82.5312 226.8850 0017685 273.5444  86.3748 14.83580101575011
Epoch (UTC): 28 April 2016 17:49:25
Eccentricity: 0.0017685
inclination: 82.5312°
perigee height: 605 km
apogee height: 630 km
right ascension of ascending node: 226.8850°
argument of perigee: 273.5444°
revolutions per day: 14.83580101
mean anomaly at epoch: 86.3748°
orbit number at epoch: 57501

The dashed part of the orbit path shows where the satellite is in the earth's shadow,  

DLR